Wind_Speed
112 114 115 117 118 120 121 123 124 125 125 126 126 126 126 126 126 126 125 125 124 123 122 121 120 119 119 118 117 117 116 116 115 114 112 111 110 109 108 107 106 106 105 104 104 103 103 103 102 102 102 102 102 101 101 101 101 101 101 101 102 102 102 102 102 102 102 103 103 104 104 104 105 105 106 106 107 108 108 108 109 109 110 110 111 112
116 117 119 120 121 122 124 124 125 125 125 125 125 125 124 124 124 123 122 121 120 119 118 117 115 114 113 113 112 112 111 110 109 108 107 106 105 104 103 102 102 101 101 100 100 99 99 99 99 99 99 98 98 98 98 98 98 98 98 98 98 98 99 99 99 99 99 100 100 100 101 101 101 101 102 102 103 104 104 104 105 105 105 106 107 108
120 121 122 122 123 123 124 124 124 124 123 123 122 122 121 120 120 119 118 116 115 114 112 111 110 109 108 108 107 107 106 105 104 103 102 101 100 100 99 99 98 97 97 97 96 96 96 96 96 95 95 95 95 95 95 94 94 94 94 95 95 95 95 96 96 96 96 96 97 97 97 98 98 98 98 99 99 100 100 101 101 101 101 102 103 104
122 123 123 123 123 122 122 122 121 121 120 119 118 117 116 116 115 114 112 111 110 109 107 106 106 105 105 104 103 103 102 101 100 99 98 98 97 96 96 95 94 94 94 93 93 93 93 93 92 92 92 92 92 92 92 91 91 91 91 91 92 92 92 93 93 93 93 93 94 94 94 95 95 95 95 96 96 96 97 97 97 98 98 98 99 100
123 123 122 122 121 120 119 118 117 116 115 114 113 112 111 110 110 109 107 106 105 104 103 103 102 102 101 101 100 99 98 97 97 96 95 95 94 93 92 92 91 91 91 91 90 90 90 90 90 89 89 89 89 88 88 88 88 88 89 89 89 89 90 90 90 90 91 91 91 91 92 92 92 92 92 92 93 93 93 94 94 94 95 95 96 96
122 121 120 119 118 117 115 114 113 112 111 110 109 107 106 106 105 104 103 102 101 101 100 100 99 99 98 98 97 96 95 94 94 93 92 91 90 90 89 89 88 88 88 88 88 87 87 87 86 86 86 86 86 86 86 86 86 86 86 86 87 87 87 87 88 88 88 88 88 89 89 90 90 90 90 90 90 90 91 91 91 92 92 92 93 93
120 118 116 115 113 112 111 110 108 107 106 105 104 103 102 102 101 101 100 99 98 98 97 97 97 96 95 95 94 93 92 91 90 90 89 88 87 87 86 86 86 85 85 85 85 85 84 84 83 83 83 83 83 83 83 83 84 84 84 84 84 84 85 85 85 85 85 85 86 86 87 87 87 88 88 88 88 88 88 88 89 89 90 90 90 90
116 114 112 111 109 108 107 106 105 104 103 102 101 100 99 98 98 97 97 96 95 95 95 94 94 93 92 92 91 90 89 88 87 86 86 85 85 84 84 83 83 83 83 83 82 82 81 81 80 80 80 80 80 81 81 81 82 82 82 82 82 82 82 82 82 83 83 83 83 84 84 85 85 85 85 85 85 85 86 86 86 87 87 87 87 87
112 110 108 107 105 104 103 102 101 100 99 99 98 97 96 96 95 94 94 93 93 93 92 92 91 90 89 89 88 87 86 85 84 83 83 83 82 82 82 81 81 81 81 80 79 79 78 78 78 78 78 78 78 79 79 79 79 79 79 79 79 79 79 80 80 80 80 81 81 81 82 82 83 83 83 83 83 83 83 83 84 84 84 85 85 85
108 106 105 104 102 101 100 100 99 97 96 96 95 94 94 93 92 91 91 91 91 90 90 89 88 87 86 86 85 84 83 82 81 80 80 80 80 80 80 79 79 79 78 77 77 76 76 75 75 75 76 76 76 76 76 76 77 77 77 77 77 77 77 77 77 78 78 78 79 79 79 80 80 81 81 81 81 81 81 81 81 82 82 82 83 83
105 103 102 101 100 98 97 97 96 95 94 93 92 91 91 90 90 89 88 88 87 87 87 86 85 84 83 82 82 81 80 79 78 78 78 78 78 78 78 77 77 76 76 75 74 74 73 73 73 73 74 74 74 74 74 74 74 74 74 74 74 74 75 75 75 75 76 76 76 77 77 78 78 78 79 79 79 79 79 79 79 79 80 80 81 81
102 101 100 98 97 96 95 94 93 92 91 90 90 89 88 88 87 86 85 84 84 84 84 83 82 81 81 79 78 78 77 76 76 76 77 77 77 76 75 75 74 74 73 73 72 72 72 71 71 72 72 72 72 71 71 71 71 71 71 71 72 72 72 72 72 73 73 73 74 74 75 75 76 76 77 77 77 77 77 77 77 78 78 79 79 80
99 98 97 96 95 94 93 92 90 89 88 88 87 86 85 85 84 83 82 82 81 81 80 80 79 79 78 77 76 74 74 73 74 75 75 76 75 74 73 72 71 71 71 71 71 70 70 70 70 69 69 69 69 69 69 69 69 69 69 69 69 69 69 70 70 70 70 71 71 71 72 73 73 74 74 75 75 75 75 76 76 76 76 77 78 78
96 95 94 93 92 91 90 89 88 87 86 85 84 83 83 82 81 81 80 79 78 78 77 77 77 76 76 75 73 72 71 71 72 73 74 74 73 72 70 69 68 69 69 69 69 69 68 68 67 67 67 67 66 66 66 66 66 66 66 66 66 66 66 66 67 67 67 68 68 69 69 70 70 71 71 72 73 73 73 74 74 74 75 75 76 76
94 92 91 90 89 88 87 86 85 84 83 82 81 81 80 79 79 78 77 76 76 75 75 74 74 74 74 72 71 69 68 69 70 72 72 72 71 69 67 66 66 66 67 67 67 66 66 65 65 65 64 64 64 63 63 63 64 64 64 64 64 64 64 64 64 64 64 65 65 66 66 67 67 68 69 69 70 70 71 71 72 72 73 73 74 74
91 90 89 88 87 86 85 84 82 81 80 80 79 78 78 77 76 75 75 74 73 73 72 72 72 72 72 70 69 67 66 67 68 69 70 70 68 66 64 63 63 64 65 64 64 63 63 62 62 62 61 61 61 61 60 60 60 60 61 61 61 61 61 61 61 61 61 62 62 63 63 64 64 65 66 66 67 67 68 69 69 70 71 71 72 72
89 88 86 85 84 83 82 81 80 79 78 77 77 76 75 75 74 73 72 72 71 71 70 70 69 69 69 69 67 66 65 65 66 67 67 67 65 63 62 61 61 62 62 61 61 60 60 60 59 59 58 58 58 58 57 57 57 57 57 57 58 58 58 58 58 58 58 59 59 60 60 61 61 62 62 63 64 64 65 66 66 67 68 69 69 70
87 86 84 83 82 81 80 79 78 77 76 75 74 74 73 72 72 71 70 69 69 68 68 67 67 67 67 66 66 65 64 63 63 64 64 63 62 60 59 59 59 59 59 58 57 57 57 56 56 56 56 55 55 55 55 54 54 54 54 55 55 55 55 55 55 55 56 56 56 57 57 58 58 59 59 60 61 61 62 63 63 64 65 66 67 68
85 84 82 81 80 79 78 77 76 75 74 73 72 72 71 70 69 68 68 67 66 66 65 65 65 64 64 64 64 63 62 62 61 61 61 60 58 57 56 56 56 56 56 55 54 54 54 53 53 53 53 53 52 52 52 52 52 52 51 52 52 52 52 52 52 52 53 53 53 54 54 55 55 56 56 57 58 58 59 60 61 61 62 63 64 65
83 82 80 79 78 77 76 75 74 73 72 71 70 70 69 68 67 66 66 65 64 64 63 62 62 62 61 61 61 61 60 59 59 58 58 57 56 54 54 53 53 53 52 52 51 51 51 51 51 50 50 50 50 50 50 49 49 49 49 49 49 49 49 49 50 50 50 50 51 51 51 52 53 53 54 54 55 56 56 57 58 59 60 60 61 62
81 80 79 77 76 75 74 73 72 71 70 69 68 67 66 66 65 64 63 63 62 61 61 60 59 59 58 58 58 58 57 57 56 55 55 54 53 52 51 51 50 50 50 49 48 48 48 48 48 48 48 48 48 47 47 47 46 46 46 46 46 46 47 47 47 47 47 48 48 48 49 49 50 51 51 52 52 53 54 55 55 56 57 58 59 60
80 78 77 76 74 73 72 71 70 69 68 67 66 65 64 63 63 62 61 61 60 59 58 57 57 56 56 55 55 55 54 53 53 52 52 51 50 49 48 48 48 47 47 47 46 46 46 46 46 46 46 46 45 45 45 45 44 44 44 44 44 44 44 44 45 45 45 45 46 46 47 47 48 48 49 50 50 51 51 52 53 54 55 56 57 58
78 77 75 74 72 71 70 69 68 67 66 65 63 62 62 61 60 60 59 58 57 57 56 55 54 54 53 52 52 52 51 50 50 49 49 48 48 47 46 46 45 45 45 44 44 44 44 44 44 44 44 44 43 43 42 42 42 42 42 42 42 42 42 42 43 43 43 43 44 44 45 45 45 46 47 47 48 49 49 50 51 51 52 53 54 55
76 75 74 72 71 69 68 67 66 65 64 63 61 60 59 58 58 57 56 56 55 54 54 53 52 51 51 50 49 49 48 48 47 47 46 46 45 45 44 44 44 43 43 43 42 42 42 42 42 42 42 41 41 40 40 40 40 40 40 40 40 40 40 40 41 41 41 41 42 42 42 43 43 44 44 45 46 46 47 48 48 49 50 51 52 53
75 73 72 70 69 68 66 65 64 63 62 61 60 58 57 56 56 55 54 53 53 52 51 51 50 49 48 48 47 47 46 45 45 44 44 44 44 43 43 42 42 42 41 41 41 41 40 40 40 40 39 39 39 38 38 38 38 38 38 38 38 38 38 38 39 39 39 39 40 40 40 41 41 42 42 43 43 44 45 45 46 47 48 49 50 51
73 71 70 68 67 66 64 63 62 61 60 59 58 57 55 55 54 53 52 51 51 50 49 48 48 47 46 46 45 45 44 43 43 42 42 42 42 41 41 41 40 40 40 39 39 39 39 39 38 38 38 37 37 36 36 36 36 36 36 36 36 36 36 37 37 37 37 37 38 38 39 39 40 40 41 41 41 42 43 43 44 45 46 46 47 48
70 69 68 66 65 64 62 61 60 59 58 57 56 55 54 53 52 51 51 50 49 48 47 46 46 45 44 44 43 43 42 42 41 40 40 40 40 40 39 39 39 38 38 38 38 38 37 37 37 36 36 35 35 34 34 34 34 34 34 34 34 34 34 35 35 35 35 35 36 36 37 37 38 38 39 39 40 40 41 41 42 43 43 44 45 46
68 67 66 64 63 62 60 59 58 57 56 55 54 53 52 51 50 50 49 48 47 46 46 45 44 43 42 42 41 41 41 40 39 39 38 38 38 38 38 37 37 37 36 36 36 36 36 35 35 34 34 33 33 32 32 32 32 32 32 32 33 32 32 33 33 33 33 33 34 34 35 35 36 36 37 37 38 38 39 39 40 40 41 42 43 44
66 65 63 62 61 60 59 58 56 55 54 53 52 51 50 49 49 48 47 46 45 45 44 43 42 42 41 40 40 39 39 38 38 37 37 36 36 36 36 36 36 35 35 35 34 34 34 34 33 33 32 32 31 31 30 30 30 31 31 31 31 30 30 30 30 30 31 31 31 32 32 33 34 34 35 35 36 36 37 37 38 38 39 40 41 42
64 63 61 60 59 58 57 55 54 53 52 51 50 49 49 48 47 46 45 44 44 43 42 42 41 40 40 39 39 38 37 37 36 36 35 35 35 35 35 34 34 34 34 33 33 32 32 32 31 31 30 30 29 29 29 29 29 29 29 29 29 28 28 28 28 28 28 29 29 29 30 31 31 32 33 33 34 34 35 35 36 36 37 38 39 40
62 61 59 58 57 56 54 53 52 51 50 49 48 47 46 46 45 44 43 42 42 41 40 40 39 39 38 38 37 37 36 35 35 34 34 33 33 33 33 33 33 33 32 32 31 31 30 30 29 29 29 28 27 27 27 27 27 27 27 27 26 26 26 26 26 26 26 26 27 27 28 29 29 30 31 31 32 32 33 33 34 35 35 36 37 38
60 59 57 56 55 54 52 51 50 49 48 47 46 45 44 44 43 42 41 41 40 39 39 38 37 37 36 36 36 35 35 34 34 33 32 32 32 32 32 31 31 31 31 30 30 29 29 28 27 27 27 26 26 25 25 25 25 25 25 25 24 24 24 24 24 24 24 24 25 25 26 27 27 28 29 29 30 30 31 31 32 33 33 34 35 36
58 57 55 54 53 52 50 49 48 47 46 45 44 43 42 42 41 40 39 39 38 37 37 36 36 35 35 34 34 34 33 33 33 32 31 31 30 30 30 30 29 29 29 29 28 28 27 26 26 25 25 24 24 24 24 24 23 23 23 23 22 22 22 22 22 22 22 23 23 24 24 25 26 26 27 27 28 28 29 29 30 31 31 32 33 34
56 55 54 52 51 50 48 47 46 45 44 43 42 41 40 40 39 38 38 37 37 36 36 35 34 34 33 33 32 32 31 31 31 31 30 30 29 29 28 28 28 27 27 27 27 26 25 25 24 23 23 22 22 22 22 22 22 21 21 21 21 21 20 20 20 21 21 21 21 22 22 23 24 24 25 25 26 26 27 27 28 29 30 30 31 32
54 53 52 50 49 48 47 46 45 43 42 41 40 40 39 38 37 37 36 36 35 35 34 34 33 33 32 32 31 31 30 29 29 29 29 28 28 27 27 26 26 26 26 25 25 24 24 23 23 22 21 21 21 21 21 20 20 20 19 19 19 19 19 19 19 19 19 19 20 20 21 21 22 22 23 23 24 24 25 26 26 27 28 29 30 31
52 51 50 49 47 46 45 44 43 42 41 40 39 38 37 36 36 35 35 34 34 33 33 33 32 32 31 31 30 30 29 28 28 28 27 27 26 26 26 25 25 25 25 24 24 23 23 22 21 21 20 20 20 19 19 19 18 18 18 18 18 18 17 17 17 17 17 17 18 18 19 19 20 20 21 21 22 23 23 24 25 26 26 27 28 29
51 49 48 47 46 45 43 43 41 40 39 38 37 37 36 35 35 34 33 33 32 32 32 31 31 31 30 30 29 29 28 28 27 27 26 26 25 25 25 24 24 24 23 23 23 22 21 21 20 19 19 19 19 18 18 17 17 17 17 17 16 16 16 16 15 15 15 16 16 17 17 17 18 19 19 20 20 21 22 22 23 24 25 26 27 28
49 48 47 45 44 43 42 41 40 39 38 37 36 35 35 34 33 33 32 32 31 31 31 30 30 29 29 28 28 27 27 27 26 26 26 25 25 24 24 24 23 23 22 22 21 21 20 20 19 18 18 18 17 17 17 16 16 16 16 15 15 15 14 14 14 14 14 14 14 15 15 16 16 17 17 18 19 19 20 21 22 23 24 24 25 26
47 46 45 44 43 42 41 40 38 37 37 36 35 34 34 33 32 32 31 31 30 30 30 29 29 29 28 28 27 27 26 26 25 25 25 24 24 23 23 22 22 22 21 21 20 20 19 18 18 17 17 16 16 16 15 15 15 15 14 14 13 13 12 12 12 12 12 12 12 13 13 14 14 15 15 16 17 18 19 19 20 21 22 23 24 25
46 44 43 42 42 40 39 38 37 36 35 35 34 33 32 32 31 31 30 30 29 29 29 29 28 28 28 27 27 26 25 25 24 24 24 23 23 22 22 21 21 20 20 19 19 18 18 17 17 16 16 15 15 15 14 14 14 14 13 13 12 11 11 10 10 10 10 11 11 11 11 12 13 13 14 15 15 16 17 18 19 20 21 22 23 24
44 43 42 41 40 39 38 37 36 35 34 33 33 32 31 30 30 29 29 28 28 28 28 27 27 27 27 27 26 26 25 24 24 23 23 22 22 21 21 20 20 19 18 18 18 17 17 16 16 15 15 14 14 14 13 13 13 13 12 11 11 10 10 9 9 9 9 9 9 9 10 10 11 12 12 13 14 15 16 17 18 19 20 21 22 23
42 41 41 40 39 38 37 36 35 34 33 32 31 31 30 29 28 28 27 27 27 26 26 26 26 26 26 26 26 25 25 24 23 22 22 21 21 20 20 19 18 18 17 16 16 16 15 15 15 14 14 14 13 13 12 12 12 11 11 10 9 9 8 8 8 7 7 7 7 8 8 9 9 10 11 12 13 13 14 15 17 18 19 20 21 22
41 40 39 38 38 37 36 35 34 33 32 31 31 30 29 28 28 27 27 26 26 26 25 25 25 25 25 25 25 25 24 23 23 22 21 21 20 20 19 18 17 17 16 15 15 15 14 14 14 14 13 13 12 12 11 11 11 10 9 9 8 7 7 6 6 6 6 6 6 6 6 7 8 9 10 11 12 12 13 15 16 17 18 19 21 22
39 39 38 37 36 36 35 34 33 32 31 30 29 29 28 28 27 27 26 26 25 25 25 24 24 24 24 24 24 24 23 22 22 21 21 20 20 19 18 17 17 16 15 14 14 14 13 13 13 13 12 12 11 11 10 10 9 9 8 7 7 6 5 5 5 4 4 4 4 5 5 6 7 8 9 9 10 11 13 14 15 16 18 19 20 22
38 37 37 36 36 35 34 33 33 32 31 30 29 28 27 27 27 26 26 26 25 25 24 24 23 23 23 23 22 22 22 21 21 20 20 19 19 18 18 17 16 15 14 14 13 13 13 12 12 12 11 11 11 10 9 9 8 7 7 6 5 5 4 4 4 3 3 3 3 3 4 5 6 7 8 9 10 11 12 14 15 16 17 19 20 22
37 36 36 35 35 34 33 33 32 31 30 29 28 27 26 26 26 26 25 25 25 24 24 23 23 23 22 22 21 21 21 20 20 20 19 19 18 18 17 16 15 14 14 13 13 12 12 12 12 11 11 10 10 9 8 8 7 6 6 5 4 4 3 3 2 2 2 2 2 3 4 4 5 6 7 9 10 11 12 14 15 16 18 19 21 22
36 35 35 34 34 33 33 32 31 31 30 29 27 26 25 25 25 25 25 24 24 23 23 23 22 22 22 21 21 20 20 20 20 19 19 18 17 17 16 15 14 14 13 12 12 11 11 11 11 10 10 10 9 8 8 7 6 5 5 4 3 2 2 2 1 1 1 2 2 3 4 4 5 6 7 9 10 11 13 14 15 16 18 19 21 22
35 35 34 34 33 33 32 32 31 30 29 28 27 26 25 24 24 23 23 23 23 23 22 22 21 21 21 21 20 20 19 19 19 19 19 18 17 16 15 14 14 13 12 12 11 11 10 10 10 10 9 9 8 8 7 6 5 4 4 3 2 2 1 1 1 1 2 2 3 3 4 5 6 6 8 9 10 11 13 14 15 16 18 19 21 23
34 34 33 33 33 32 32 31 30 30 29 28 27 26 25 24 23 23 22 23 22 22 22 21 21 20 20 20 19 19 18 18 19 19 18 17 17 15 14 13 13 12 12 11 11 10 10 10 9 9 9 8 8 7 7 6 5 4 3 3 2 1 1 0 1 2 2 3 4 4 5 5 6 7 8 9 10 11 13 14 16 17 18 20 21 23
33 33 32 32 32 31 31 31 30 29 29 28 27 26 25 24 23 22 22 22 22 21 21 21 20 20 20 19 19 18 18 18 17 17 17 17 16 15 14 13 12 11 11 10 10 10 10 9 9 8 8 7 7 7 6 5 4 4 3 2 2 1 1 1 2 2 3 4 4 5 6 6 7 8 8 9 10 12 13 15 16 17 18 20 21 23
32 32 31 31 31 31 30 30 30 29 28 28 27 26 24 23 22 21 21 20 21 21 21 21 20 20 19 19 18 17 17 17 17 16 16 16 15 14 13 12 11 10 10 10 10 9 9 9 9 8 7 7 6 6 5 5 4 3 3 2 2 2 1 2 2 3 4 5 6 6 7 7 8 8 9 10 11 12 13 15 16 18 19 20 21 23
Wind_Direction
295 295 294 294 293 293 292 292 291 290 290 289 289 288 288 288 287 287 286 286 286 285 285 285 285 284 284 283 283 282 282 281 281 281 281 281 281 280 280 280 280 279 279 279 278 278 277 277 276 275 275 274 274 273 273 272 271 271 270 270 269 269 268 268 267 266 266 265 264 264 263 262 262 261 261 260 260 259 259 258 258 257 257 256 256 255
296 296 295 295 294 293 293 292 291 291 290 290 289 289 289 288 288 287 287 287 286 286 286 285 285 285 284 284 283 282 282 282 281 281 281 281 281 281 281 280 280 279 279 279 278 278 277 276 276 275 275 274 274 273 273 272 271 271 270 270 269 269 268 268 267 266 266 265 265 264 263 263 262 261 261 260 260 259 259 258 258 257 257 256 256 255
297 296 296 295 294 294 293 292 292 291 291 290 290 289 289 288 288 288 287 287 287 286 286 286 285 285 284 284 283 283 282 282 282 282 282 282 281 281 281 280 280 280 279 279 278 278 277 276 276 275 275 274 274 273 273 272 271 271 270 270 269 269 268 268 267 266 266 265 265 264 263 263 262 262 261 260 260 259 259 259 258 257 257 256 256 255
297 297 296 296 295 294 293 293 292 292 291 291 290 290 289 289 288 288 288 287 287 287 287 286 286 285 284 284 283 283 283 283 283 283 283 282 282 281 281 281 280 280 279 279 278 277 277 276 276 275 274 274 274 273 273 272 271 271 270 270 269 268 268 267 267 266 265 265 264 264 263 263 262 262 261 260 260 259 259 258 258 257 257 256 255 255
298 297 297 296 295 295 294 293 293 292 292 291 290 290 290 289 289 288 288 288 288 287 287 286 286 285 284 284 284 284 284 284 284 283 283 283 282 282 282 281 281 280 279 278 278 277 276 276 275 275 275 274 274 273 273 272 272 271 270 269 269 268 267 267 266 266 265 265 264 264 263 263 262 262 261 260 260 259 258 258 258 257 256 256 255 255
298 298 297 297 296 295 295 294 293 293 292 291 291 290 290 290 289 289 289 288 288 288 287 286 286 285 285 285 285 285 284 284 284 284 284 283 283 282 282 281 280 280 279 278 278 277 276 276 276 275 275 274 274 273 273 272 271 271 270 269 268 268 267 267 266 266 265 265 264 264 263 263 262 262 261 260 260 259 258 258 257 257 256 256 255 254
299 298 298 297 296 296 295 294 294 293 292 292 291 291 290 290 290 289 289 289 288 288 287 286 286 286 286 286 285 285 285 285 285 284 284 284 283 283 282 281 280 279 279 278 277 277 277 276 276 276 275 274 274 273 272 272 271 270 270 269 268 268 267 267 266 266 265 265 264 264 263 263 262 262 261 261 260 259 259 258 257 257 256 256 255 254
299 299 298 297 297 296 295 295 294 293 293 292 292 291 291 290 290 290 289 289 288 288 287 287 287 287 286 286 286 286 286 285 285 285 285 284 283 282 282 281 280 279 278 278 278 277 277 277 276 276 275 274 273 273 272 271 271 270 269 269 268 268 267 267 267 266 265 265 264 264 263 263 262 262 261 261 260 259 259 258 257 257 256 256 255 254
300 299 299 298 297 296 296 295 294 294 293 293 292 292 291 291 291 290 290 289 289 288 288 287 287 287 287 287 287 286 286 286 286 285 285 284 283 282 281 281 280 279 279 278 278 278 277 277 276 276 275 274 273 272 272 271 270 270 269 269 269 268 268 267 266 266 265 265 264 264 263 263 262 262 261 261 260 259 259 258 258 257 256 256 255 255
300 300 299 298 297 297 296 295 295 294 294 293 293 292 292 291 291 290 290 290 289 289 288 288 288 288 288 287 287 287 287 286 286 285 285 284 283 282 281 281 280 280 280 279 279 279 278 277 276 275 275 274 273 272 272 271 271 270 270 269 269 268 267 267 266 265 265 264 264 263 263 262 262 261 261 260 260 259 259 258 257 257 256 256 255 254
301 300 299 298 298 297 296 296 295 295 294 294 293 293 292 292 291 291 290 290 290 289 289 289 289 288 288 287 287 287 287 287 286 286 285 284 283 282 282 281 281 281 281 280 280 279 278 278 277 276 275 274 274 273 272 272 271 271 270 269 269 268 267 267 266 265 265 264 263 263 262 262 261 261 260 260 260 259 258 258 257 256 256 255 254 254
301 300 300 299 298 298 297 296 296 295 295 294 294 293 293 292 292 291 291 290 290 290 289 289 289 288 288 287 287 287 287 287 286 286 284 283 283 282 282 282 282 282 282 281 281 280 279 278 277 276 276 275 274 274 273 273 272 271 270 270 269 268 267 266 266 265 264 264 263 262 262 261 261 260 260 259 259 258 258 257 256 256 255 254 254 253
301 301 300 299 299 298 298 297 297 296 296 295 295 294 293 293 292 292 291 291 290 290 290 289 289 289 288 288 287 287 287 287 286 285 284 283 283 283 283 283 283 283 282 282 281 280 279 278 278 277 276 276 275 275 274 273 273 272 271 270 269 268 268 267 266 265 265 264 263 262 261 261 260 259 259 258 258 257 257 256 255 255 254 253 253 252
302 301 300 300 299 299 298 298 297 297 296 296 295 295 294 293 293 292 292 291 291 290 290 289 289 288 288 288 288 288 287 287 286 285 284 283 283 283 284 284 284 283 283 282 281 280 279 279 278 278 277 277 276 275 275 274 273 272 272 271 270 269 268 267 267 266 265 264 263 262 261 260 260 259 258 258 257 257 256 255 255 254 253 253 252 251
302 301 301 300 300 300 299 298 298 297 297 296 296 295 294 293 293 292 292 291 291 290 290 289 289 288 288 288 288 288 287 286 286 285 284 284 284 285 285 285 284 283 282 281 281 280 280 279 279 278 277 277 276 275 275 274 273 273 272 271 270 270 269 268 267 266 265 264 263 262 261 261 260 259 258 257 257 256 255 255 254 253 253 252 251 251
303 302 302 301 301 300 300 299 298 298 297 297 296 295 294 293 293 292 292 292 291 291 290 290 289 289 289 289 288 288 287 286 285 285 285 285 285 286 286 285 284 283 282 281 281 281 280 280 279 278 278 277 276 275 275 274 273 273 272 272 271 270 269 268 267 266 265 264 263 263 262 261 260 259 258 257 256 256 255 254 253 253 252 251 251 250
304 303 303 302 302 301 300 300 299 298 298 297 296 295 294 294 293 293 292 292 292 291 291 290 290 290 289 289 289 288 287 286 285 285 285 286 286 286 286 285 284 283 282 282 282 281 281 280 279 279 278 277 276 276 275 274 274 273 272 272 271 270 269 269 268 267 266 265 264 263 262 261 260 259 258 257 256 255 255 254 253 252 251 251 250 249
304 304 303 303 302 302 301 300 300 299 298 297 296 296 295 294 294 294 293 293 292 292 291 291 290 290 290 290 289 289 288 287 286 286 286 286 287 287 286 285 284 283 283 282 282 282 281 280 279 279 278 278 277 276 275 275 274 273 273 272 271 271 270 269 268 267 266 265 264 263 262 261 260 259 258 257 256 255 254 253 252 252 251 250 249 249
305 305 304 304 303 302 301 301 300 299 298 298 297 296 296 295 295 294 294 293 293 292 291 291 291 291 290 290 290 289 289 288 288 287 287 287 287 287 286 285 284 283 283 283 282 282 281 281 280 279 279 278 277 277 276 275 274 274 273 272 272 271 270 270 269 268 267 266 265 264 263 262 261 259 258 257 256 255 254 253 252 251 250 249 249 248
306 305 305 304 303 303 302 301 301 300 299 299 298 297 297 296 296 295 295 294 293 293 292 292 291 291 291 290 290 290 290 289 289 289 288 288 288 287 286 285 285 284 284 283 283 282 282 281 281 280 279 279 278 277 277 276 275 274 274 273 272 272 271 270 269 268 267 266 265 264 263 262 261 259 258 257 256 255 254 253 252 251 250 249 248 247
306 306 305 305 304 303 303 302 302 301 300 299 299 298 298 297 297 296 295 295 294 293 293 293 292 292 291 291 291 290 290 290 290 289 289 289 288 287 287 286 285 285 285 284 284 283 282 282 281 281 280 279 279 278 278 277 276 276 275 274 273 272 271 270 269 268 267 266 265 264 263 262 261 260 258 257 256 254 253 252 251 250 249 248 247 246
307 306 306 305 305 304 304 303 302 302 301 301 300 299 299 298 298 297 296 296 295 294 294 293 293 292 292 292 291 291 291 291 290 290 290 289 289 288 287 287 286 286 285 285 284 284 283 282 282 281 280 280 279 279 279 278 277 277 276 275 274 273 272 270 269 268 267 266 265 264 263 262 261 259 258 257 256 254 253 252 250 249 248 247 246 245
308 307 307 306 306 305 305 304 303 303 302 302 301 300 300 299 299 298 297 297 296 296 295 295 294 293 293 293 292 292 292 291 291 291 291 290 290 289 288 288 287 287 286 286 285 284 284 283 282 281 281 281 280 280 279 279 278 277 276 275 274 273 272 271 270 269 268 267 265 264 263 262 260 259 258 257 255 254 252 251 250 248 247 246 245 244
308 308 307 307 307 306 306 305 305 304 303 303 302 302 301 300 300 299 298 298 297 297 296 296 295 295 294 294 293 293 293 292 292 292 292 291 291 291 290 289 289 288 287 286 286 285 284 283 283 282 282 281 281 281 280 279 279 278 277 276 275 274 273 271 270 269 268 267 266 265 263 262 261 259 258 257 255 254 252 251 249 248 246 245 244 243
309 309 308 308 308 307 307 306 306 305 305 304 304 303 302 301 301 300 299 299 298 298 297 297 297 296 296 295 295 295 294 294 294 294 293 293 293 292 291 291 290 289 288 287 287 286 285 284 284 283 283 282 282 281 281 280 279 278 277 276 275 274 273 272 271 270 269 267 266 265 264 263 262 260 259 257 255 254 252 251 249 247 246 244 243 242
310 309 309 309 308 308 308 307 307 306 306 305 305 304 304 303 302 301 301 300 300 299 299 299 298 298 298 297 297 296 296 296 296 295 295 294 294 293 292 292 291 290 289 289 288 287 286 285 284 284 284 283 283 282 281 280 280 278 277 276 275 274 273 272 271 270 269 268 267 266 265 263 262 261 259 258 256 254 252 250 249 247 245 244 242 241
310 310 310 310 309 309 309 308 308 308 307 307 306 305 305 304 304 303 302 302 302 301 301 301 300 300 299 299 299 298 298 298 297 297 296 296 295 294 293 293 292 291 290 290 289 288 287 286 286 285 285 284 283 282 282 281 279 278 277 276 274 274 272 272 271 270 269 268 267 266 265 263 262 261 259 258 256 254 253 251 249 247 245 243 242 240
311 311 311 310 310 310 310 309 309 309 308 308 307 307 306 306 305 305 304 304 304 303 303 302 302 301 301 301 300 300 300 299 299 298 298 297 296 295 294 294 293 292 291 290 290 289 288 288 287 287 286 285 284 283 282 281 280 278 277 276 275 274 273 272 271 270 269 268 267 266 265 263 262 261 259 258 256 255 253 251 249 247 245 243 242 240
312 312 311 311 311 311 311 310 310 310 309 309 308 308 307 307 307 306 306 306 305 305 305 304 304 303 303 302 302 301 301 301 300 300 299 298 297 296 295 295 294 293 292 291 291 290 289 289 288 287 287 286 285 284 282 281 280 278 277 276 275 274 274 273 272 271 270 269 268 266 265 264 262 261 259 258 256 254 253 251 249 247 245 243 241 239
312 312 312 312 312 312 311 311 311 311 310 310 309 309 308 308 308 308 307 307 307 306 306 305 305 304 304 304 303 303 302 302 301 301 300 299 299 298 297 296 295 294 294 293 292 291 290 290 289 289 288 287 285 284 283 281 280 279 278 277 276 276 275 274 273 272 271 270 268 267 266 264 262 261 259 258 256 254 252 251 249 247 245 243 241 239
313 313 313 313 313 312 312 312 312 311 311 310 310 310 309 309 309 309 308 308 307 307 307 306 306 306 305 305 305 304 304 303 303 302 301 301 300 299 298 298 296 296 295 294 293 292 292 291 290 290 289 288 286 285 283 282 281 280 279 279 278 278 277 276 275 274 273 271 270 268 266 265 263 261 259 258 256 254 252 250 248 246 244 242 241 239
314 314 314 313 313 313 313 312 312 312 311 311 311 310 310 310 310 309 309 309 308 308 307 307 307 306 306 306 306 306 305 305 304 303 303 302 301 300 299 299 298 297 296 295 294 294 293 293 292 291 290 289 288 286 285 283 282 281 281 281 280 280 279 278 277 276 274 273 271 269 267 265 263 261 259 257 255 253 251 250 248 246 244 242 240 238
314 314 314 314 314 313 313 313 313 312 312 311 311 311 311 310 310 310 310 309 309 309 308 308 307 307 307 307 306 306 306 306 305 305 304 303 302 301 301 300 299 298 298 297 296 295 295 294 293 292 291 291 290 288 287 285 285 284 284 284 283 282 281 280 279 277 276 274 271 269 267 265 263 260 258 256 254 252 250 249 247 245 243 241 239 237
315 315 314 314 314 314 313 313 313 312 312 312 312 312 312 311 311 311 311 310 310 310 309 309 309 308 308 307 307 307 306 306 306 306 305 304 303 303 302 301 301 300 299 299 298 297 297 296 295 294 293 293 292 290 289 288 288 287 287 286 285 284 283 282 280 278 276 274 271 269 266 264 262 259 257 255 253 251 249 247 245 243 241 240 238 236
315 315 314 314 314 314 314 313 313 313 313 313 313 313 313 312 312 312 312 311 311 311 310 310 310 309 309 308 308 307 307 307 307 306 306 306 305 304 304 303 302 302 301 301 300 300 299 299 298 297 297 295 294 293 292 292 291 291 290 289 288 286 284 282 280 278 276 273 271 268 265 263 260 258 255 253 251 249 247 245 243 241 239 238 236 234
315 315 315 314 314 314 314 314 314 314 314 314 314 314 314 314 313 313 313 312 312 311 311 311 310 310 310 309 309 309 309 308 308 308 307 307 306 306 306 305 304 303 303 303 302 302 302 301 301 300 299 298 297 297 296 296 295 294 292 290 288 286 284 282 281 278 276 273 270 267 264 261 259 256 254 251 249 247 245 242 241 239 237 235 233 232
315 315 315 314 314 314 314 314 314 314 315 315 315 315 315 315 314 314 313 313 312 312 312 311 311 311 310 310 310 310 310 310 310 309 309 308 308 308 307 306 306 305 305 305 305 305 304 304 303 303 302 301 301 300 300 299 297 295 293 290 288 286 285 283 281 279 275 272 269 265 263 260 257 254 252 249 247 245 242 240 237 236 234 232 230 228
315 315 315 315 315 315 315 315 315 315 316 316 316 316 315 315 315 314 313 313 313 312 312 311 311 311 311 311 311 311 311 311 311 311 310 310 309 309 308 308 307 307 307 307 308 307 307 306 305 305 304 304 304 304 304 302 300 297 293 290 289 287 286 285 282 278 275 272 268 264 261 258 255 252 249 247 244 242 239 237 235 232 230 228 226 225
315 315 315 315 315 315 315 316 316 316 316 316 316 316 316 315 315 314 314 313 313 313 312 312 312 311 311 311 312 312 312 312 312 311 311 310 310 309 309 308 308 308 308 309 309 310 309 308 308 307 307 307 308 307 306 304 301 297 294 292 290 290 288 285 281 278 274 270 266 263 259 257 253 250 247 244 241 238 236 233 231 228 226 224 222 220
315 315 315 315 315 316 316 316 317 317 317 317 316 316 316 315 315 314 314 313 313 313 313 313 312 312 312 313 313 313 313 312 312 311 311 311 310 310 309 309 309 309 309 310 310 311 311 311 310 310 310 310 311 310 308 305 302 299 296 295 293 291 289 285 281 277 273 268 265 261 257 253 250 247 243 240 237 234 231 229 226 224 221 219 218 216
316 315 315 316 316 316 316 317 317 317 317 317 316 316 315 314 314 313 313 313 313 312 312 312 313 313 313 313 313 313 313 313 312 312 311 311 311 310 310 310 310 310 310 311 312 313 313 314 314 314 314 314 314 312 309 307 303 301 299 297 295 292 288 284 280 275 271 267 262 259 254 251 247 243 239 236 232 229 226 224 222 219 217 215 213 211
316 316 316 316 316 316 317 317 317 317 317 316 316 315 314 314 313 312 312 311 311 311 312 312 313 313 314 314 314 314 314 313 313 313 312 312 312 311 311 310 311 311 312 313 314 315 315 317 317 318 318 318 316 314 311 308 306 303 301 298 296 291 287 283 278 274 269 264 261 256 251 248 244 239 235 230 227 223 220 218 216 213 211 209 207 205
316 316 316 316 316 316 316 316 317 316 316 316 315 314 314 313 312 312 311 310 310 311 311 312 313 314 314 315 315 315 314 314 314 314 313 313 313 312 313 312 313 313 314 315 317 319 319 320 320 321 321 320 318 316 313 310 307 305 303 299 295 291 287 283 277 272 266 262 257 252 246 243 237 232 228 224 220 217 214 211 209 207 205 203 201 200
316 316 316 316 316 316 316 315 315 315 315 314 314 314 313 313 312 311 310 309 310 310 311 312 313 315 315 316 316 316 315 315 315 314 314 314 314 314 314 315 315 316 317 318 321 322 323 324 324 323 322 321 319 317 314 311 309 307 304 301 296 292 288 283 276 270 263 257 251 243 238 233 229 224 220 216 212 209 206 204 202 200 198 197 195 194
316 315 315 315 315 315 314 314 314 314 313 313 313 312 312 312 311 311 310 309 310 310 311 313 314 315 315 316 317 317 317 316 315 315 315 315 315 315 316 317 317 318 319 321 323 324 326 327 327 325 323 322 320 319 316 313 311 309 306 303 300 295 288 281 273 268 256 244 236 229 223 220 216 212 209 205 202 200 198 196 194 193 192 190 189 188
315 315 315 314 314 313 313 312 312 312 311 311 311 311 311 311 311 310 310 309 310 311 312 314 315 316 316 317 318 319 318 317 316 316 315 315 315 316 317 318 319 320 321 323 324 325 327 329 329 328 326 325 322 321 319 317 315 314 311 309 308 302 294 287 272 258 242 225 212 205 204 201 199 198 196 194 192 190 188 187 187 186 185 185 184 183
315 314 314 313 313 312 311 311 311 310 310 309 309 309 310 310 310 310 309 309 310 311 312 314 315 316 316 318 319 320 320 320 318 317 316 315 315 316 318 319 321 321 323 324 326 327 329 330 330 330 329 327 326 325 324 322 321 320 320 319 317 316 304 288 264 237 214 197 185 182 182 181 182 183 185 184 183 181 181 180 179 179 179 179 178 178
314 313 313 312 312 311 310 310 309 309 308 307 307 308 308 309 309 309 309 309 310 311 312 314 315 316 317 318 320 321 322 322 320 318 317 315 315 316 318 321 323 324 325 326 328 330 331 333 333 333 332 331 329 330 330 329 328 327 330 332 335 337 324 286 231 192 177 170 165 161 164 164 168 170 173 173 174 174 173 173 173 173 173 174 173 173
314 313 312 311 310 309 309 308 308 307 306 306 306 307 307 308 308 309 309 310 310 311 312 313 315 315 317 318 320 322 323 323 322 320 319 317 317 317 319 322 326 328 329 330 331 333 334 334 335 335 334 333 334 334 334 335 337 339 345 353 357 8 14 97 163 167 161 156 153 152 153 154 157 160 162 164 166 167 168 168 168 168 168 169 169 169
313 312 311 310 309 308 308 307 307 306 306 305 306 306 307 308 308 310 310 311 312 312 313 314 315 316 316 318 320 322 323 324 323 322 320 320 318 319 321 324 328 331 333 335 336 337 338 339 339 338 338 337 338 338 340 342 345 352 2 10 24 36 64 122 149 154 152 150 146 146 146 148 150 153 154 157 160 161 163 163 163 164 164 165 166 166
313 312 311 310 309 308 307 307 306 306 305 306 306 306 307 307 308 310 311 312 312 313 313 314 315 316 316 318 319 321 323 324 325 324 323 322 321 321 323 326 329 333 335 337 339 341 342 342 341 341 341 341 342 344 345 350 355 5 18 36 49 69 91 128 147 151 151 147 144 142 143 143 144 146 148 151 154 157 159 159 160 160 161 161 162 163
Height
10312 10307 10302 10297 10294 10289 10283 10275 10269 10266 10261 10255 10248 10244 10241 10237 10231 10226 10221 10217 10214 10211 10207 10204 10201 10199 10196 10192 10188 10184 10181 10177 10174 10172 10170 10169 10167 10166 10164 10162 10161 10159 10158 10157 10156 10154 10152 10151 10149 10147 10146 10146 10144 10144 10143 10143 10142 10142 10142 10141 10140 10139 10139 10139 10140 10141 10141 10141 10142 10142 10144 10145 10146 10147 10149 10150 10151 10153 10155 10157 10159 10162 10165 10168 10171 10172
10298 10294 10289 10283 10279 10276 10270 10261 10255 10250 10246 10240 10235 10230 10225 10221 10216 10211 10206 10203 10200 10196 10193 10191 10187 10184 10181 10178 10175 10171 10167 10164 10162 10161 10159 10158 10156 10155 10153 10152 10150 10148 10147 10146 10144 10142 10141 10139 10137 10136 10135 10134 10133 10132 10132 10131 10131 10131 10130 10129 10129 10128 10128 10128 10128 10129 10129 10129 10130 10131 10131 10132 10134 10136 10137 10138 10140 10141 10143 10146 10147 10151 10154 10156 10158 10161
10284 10280 10274 10268 10263 10259 10254 10247 10241 10235 10230 10225 10221 10216 10211 10206 10201 10197 10193 10189 10186 10183 10180 10177 10174 10171 10168 10165 10162 10159 10156 10153 10152 10151 10149 10147 10146 10144 10142 10141 10139 10137 10136 10134 10132 10131 10129 10127 10126 10125 10124 10123 10122 10121 10121 10120 10120 10119 10119 10119 10118 10117 10117 10117 10117 10117 10117 10118 10119 10119 10120 10121 10122 10124 10126 10127 10129 10131 10132 10134 10136 10139 10141 10144 10146 10149
10268 10265 10260 10254 10248 10243 10238 10232 10227 10221 10215 10211 10206 10202 10197 10192 10188 10184 10180 10177 10174 10171 10167 10164 10162 10158 10155 10152 10149 10147 10145 10143 10141 10140 10139 10137 10135 10133 10132 10130 10129 10127 10125 10123 10122 10120 10118 10117 10116 10114 10113 10112 10112 10111 10111 10110 10109 10109 10108 10108 10107 10107 10107 10106 10106 10106 10107 10107 10107 10108 10109 10110 10111 10113 10114 10116 10117 10119 10121 10123 10125 10127 10129 10132 10134 10137
10252 10249 10244 10239 10234 10227 10222 10217 10212 10207 10201 10196 10192 10188 10184 10179 10175 10171 10168 10165 10162 10159 10156 10152 10149 10146 10143 10141 10139 10137 10135 10133 10131 10129 10128 10126 10124 10123 10121 10120 10118 10116 10114 10112 10111 10109 10107 10107 10106 10104 10104 10102 10102 10101 10101 10100 10099 10098 10098 10097 10097 10096 10096 10096 10096 10096 10096 10097 10097 10098 10098 10099 10101 10102 10104 10106 10107 10108 10111 10112 10114 10116 10118 10120 10122 10125
10237 10233 10229 10224 10219 10214 10207 10202 10198 10193 10187 10183 10179 10176 10172 10168 10164 10160 10157 10154 10151 10147 10144 10141 10137 10134 10132 10130 10128 10127 10126 10124 10121 10119 10117 10116 10114 10113 10111 10109 10107 10106 10104 10102 10100 10099 10097 10097 10096 10095 10094 10094 10092 10092 10091 10090 10089 10088 10087 10087 10087 10086 10086 10086 10086 10087 10087 10087 10088 10089 10089 10089 10091 10092 10093 10095 10096 10098 10101 10102 10104 10105 10107 10110 10112 10114
10223 10219 10214 10209 10205 10199 10194 10189 10184 10179 10175 10170 10166 10164 10161 10157 10153 10149 10146 10143 10140 10136 10133 10129 10126 10124 10122 10120 10119 10117 10116 10114 10112 10110 10108 10106 10104 10103 10101 10099 10097 10096 10094 10092 10090 10089 10088 10087 10087 10087 10086 10084 10084 10082 10081 10080 10079 10079 10078 10077 10077 10077 10077 10077 10077 10078 10078 10079 10079 10080 10080 10081 10081 10082 10084 10085 10087 10089 10091 10092 10094 10096 10097 10100 10102 10104
10209 10205 10200 10196 10191 10186 10181 10176 10171 10167 10163 10159 10155 10152 10149 10146 10142 10139 10136 10132 10129 10126 10122 10119 10117 10115 10112 10110 10108 10107 10106 10105 10103 10101 10099 10097 10094 10092 10091 10089 10087 10086 10084 10082 10081 10080 10080 10079 10079 10078 10077 10076 10074 10073 10072 10071 10070 10069 10069 10069 10069 10069 10069 10069 10069 10069 10070 10071 10071 10071 10071 10072 10072 10073 10074 10076 10077 10079 10081 10083 10084 10086 10088 10090 10092 10095
10197 10192 10187 10182 10178 10174 10168 10164 10159 10156 10152 10148 10145 10142 10139 10135 10132 10129 10126 10122 10119 10114 10111 10110 10108 10107 10104 10101 10099 10097 10097 10096 10094 10092 10089 10087 10084 10082 10081 10079 10077 10076 10074 10074 10072 10072 10072 10071 10070 10069 10067 10066 10065 10064 10062 10062 10061 10061 10061 10061 10061 10061 10061 10061 10061 10061 10061 10062 10062 10062 10062 10063 10064 10064 10066 10067 10069 10070 10072 10074 10076 10077 10079 10081 10083 10086
10185 10180 10175 10171 10166 10162 10157 10152 10148 10144 10142 10139 10135 10131 10128 10125 10122 10119 10117 10114 10109 10104 10102 10101 10099 10098 10096 10093 10090 10088 10087 10087 10086 10083 10080 10077 10075 10073 10071 10069 10068 10067 10066 10065 10064 10064 10064 10062 10061 10060 10058 10057 10056 10055 10054 10054 10054 10053 10053 10052 10052 10052 10052 10052 10052 10052 10053 10053 10054 10054 10054 10055 10056 10056 10057 10058 10060 10061 10063 10065 10067 10069 10071 10072 10074 10076
10174 10169 10164 10159 10154 10150 10147 10142 10138 10135 10132 10129 10125 10121 10119 10115 10112 10110 10108 10105 10101 10097 10093 10091 10090 10089 10087 10085 10082 10081 10079 10078 10076 10074 10071 10067 10066 10064 10062 10061 10060 10059 10058 10057 10056 10056 10054 10054 10052 10051 10049 10048 10047 10047 10046 10046 10046 10045 10045 10044 10044 10044 10044 10044 10044 10044 10045 10045 10046 10046 10046 10047 10047 10048 10049 10050 10051 10052 10054 10056 10058 10060 10062 10064 10065 10067
10163 10157 10152 10147 10143 10139 10136 10132 10129 10126 10122 10119 10115 10112 10109 10106 10102 10100 10099 10097 10094 10089 10086 10083 10081 10079 10077 10076 10075 10074 10072 10071 10067 10064 10061 10057 10056 10055 10055 10054 10053 10052 10050 10049 10048 10047 10046 10044 10044 10042 10041 10040 10039 10039 10038 10038 10037 10037 10036 10036 10036 10036 10036 10036 10036 10036 10036 10037 10037 10037 10038 10039 10039 10040 10041 10042 10042 10044 10046 10047 10049 10051 10052 10054 10056 10057
10153 10147 10142 10138 10134 10130 10126 10122 10119 10116 10113 10109 10106 10103 10100 10097 10094 10091 10089 10087 10085 10082 10079 10076 10073 10070 10068 10067 10067 10067 10066 10063 10059 10055 10051 10048 10047 10047 10048 10047 10046 10044 10042 10041 10039 10038 10037 10036 10036 10034 10033 10032 10032 10031 10031 10030 10029 10029 10028 10027 10027 10027 10027 10027 10028 10028 10029 10029 10029 10029 10030 10031 10031 10032 10032 10034 10034 10036 10037 10039 10041 10042 10044 10046 10047 10049
10143 10137 10133 10129 10125 10121 10117 10114 10110 10107 10104 10101 10097 10094 10091 10088 10085 10082 10081 10079 10076 10074 10072 10069 10066 10062 10060 10059 10060 10061 10060 10056 10051 10046 10042 10040 10039 10041 10042 10042 10040 10037 10034 10032 10031 10029 10029 10028 10027 10027 10026 10025 10024 10024 10022 10022 10021 10021 10020 10020 10020 10020 10020 10020 10020 10020 10021 10021 10021 10021 10022 10022 10023 10024 10025 10026 10027 10028 10029 10031 10032 10034 10036 10038 10039 10041
10134 10129 10125 10121 10117 10112 10108 10105 10102 10099 10096 10092 10089 10086 10082 10080 10077 10075 10072 10071 10068 10066 10064 10061 10058 10056 10053 10052 10053 10054 10052 10049 10043 10038 10034 10032 10033 10034 10036 10036 10033 10029 10027 10025 10023 10022 10022 10021 10020 10019 10018 10017 10017 10016 10016 10014 10014 10013 10013 10012 10012 10012 10012 10012 10012 10012 10012 10013 10013 10014 10014 10015 10016 10016 10017 10018 10019 10021 10022 10023 10024 10026 10029 10030 10031 10033
10125 10121 10116 10112 10108 10104 10100 10096 10094 10091 10087 10084 10081 10077 10074 10071 10069 10067 10065 10063 10061 10059 10056 10054 10051 10048 10046 10045 10046 10046 10045 10041 10036 10031 10028 10026 10027 10028 10030 10029 10026 10022 10019 10017 10017 10016 10015 10014 10013 10012 10011 10011 10010 10009 10009 10008 10007 10007 10006 10006 10006 10005 10005 10005 10005 10006 10006 10006 10006 10006 10007 10007 10008 10009 10010 10011 10012 10013 10014 10015 10017 10018 10020 10021 10022 10024
10116 10112 10107 10104 10100 10096 10091 10088 10086 10083 10079 10076 10072 10069 10066 10064 10062 10060 10058 10056 10054 10052 10049 10047 10044 10042 10039 10037 10037 10037 10037 10034 10029 10025 10022 10021 10021 10022 10023 10021 10017 10014 10012 10012 10011 10011 10009 10007 10006 10006 10005 10004 10004 10003 10002 10002 10001 10001 10000 9999 9999 9999 9999 9999 9999 9999 9999 9999 9999 10000 10001 10001 10001 10002 10002 10003 10004 10006 10006 10008 10009 10011 10012 10013 10015 10017
10107 10102 10099 10096 10092 10087 10083 10080 10077 10075 10072 10068 10064 10061 10059 10057 10055 10053 10051 10049 10047 10045 10042 10040 10038 10036 10033 10030 10029 10028 10028 10026 10022 10020 10018 10016 10016 10016 10016 10013 10010 10007 10006 10006 10006 10004 10003 10001 10000 9999 9999 9998 9997 9996 9996 9996 9995 9994 9994 9994 9993 9993 9992 9992 9992 9992 9992 9993 9993 9994 9994 9994 9994 9995 9996 9996 9997 9999 9999 10001 10002 10003 10005 10006 10007 10009
10098 10094 10091 10088 10084 10080 10076 10072 10070 10067 10064 10061 10057 10054 10052 10050 10048 10046 10045 10043 10041 10039 10036 10034 10031 10029 10027 10025 10022 10021 10020 10018 10016 10014 10012 10011 10011 10010 10009 10007 10004 10002 10001 10001 9999 9998 9997 9996 9994 9994 9993 9992 9991 9991 9990 9990 9989 9989 9989 9988 9987 9987 9987 9987 9987 9987 9987 9987 9987 9987 9987 9987 9988 9989 9989 9990 9991 9992 9993 9994 9995 9996 9998 9999 10001 10002
10091 10086 10083 10081 10077 10072 10069 10066 10062 10060 10057 10054 10051 10048 10046 10043 10042 10040 10038 10036 10034 10032 10030 10028 10026 10024 10021 10019 10016 10014 10013 10012 10010 10008 10006 10006 10004 10004 10002 10001 9998 9997 9996 9995 9994 9992 9991 9990 9989 9988 9987 9986 9986 9985 9984 9984 9984 9984 9983 9983 9982 9982 9982 9981 9981 9981 9981 9981 9981 9981 9981 9981 9982 9982 9983 9984 9984 9985 9986 9987 9989 9990 9991 9992 9994 9996
10083 10079 10076 10073 10069 10066 10062 10058 10056 10053 10050 10047 10044 10042 10040 10037 10036 10033 10031 10029 10027 10025 10024 10022 10020 10018 10016 10014 10011 10009 10007 10006 10004 10002 10001 10000 9999 9998 9997 9995 9993 9991 9991 9989 9988 9987 9986 9984 9984 9982 9982 9981 9981 9980 9979 9979 9979 9979 9978 9978 9977 9977 9976 9976 9976 9976 9975 9975 9975 9975 9976 9976 9976 9976 9977 9977 9978 9979 9980 9981 9982 9983 9984 9986 9987 9989
10076 10072 10069 10066 10062 10059 10056 10052 10049 10046 10044 10042 10039 10037 10034 10032 10029 10026 10024 10022 10021 10019 10017 10016 10014 10012 10011 10008 10006 10004 10002 10001 9999 9997 9996 9994 9993 9992 9991 9989 9987 9986 9986 9984 9983 9982 9981 9979 9979 9977 9977 9976 9976 9975 9975 9974 9974 9974 9973 9972 9972 9972 9971 9971 9970 9970 9970 9970 9970 9970 9970 9970 9970 9970 9971 9971 9972 9972 9974 9974 9976 9977 9978 9979 9981 9983
10069 10066 10062 10059 10056 10052 10049 10046 10043 10040 10038 10036 10034 10032 10029 10026 10024 10021 10019 10017 10015 10013 10012 10010 10009 10007 10005 10003 10001 9999 9997 9996 9994 9992 9991 9989 9987 9986 9986 9984 9983 9981 9981 9979 9978 9977 9976 9975 9974 9972 9972 9971 9971 9971 9971 9970 9969 9969 9969 9968 9967 9967 9966 9966 9965 9965 9965 9964 9964 9964 9964 9964 9964 9965 9965 9966 9966 9967 9967 9969 9970 9971 9972 9974 9975 9977
10062 10059 10056 10052 10049 10046 10044 10041 10037 10034 10032 10030 10027 10025 10022 10021 10018 10016 10014 10011 10009 10007 10006 10004 10003 10001 9999 9998 9996 9994 9992 9991 9989 9987 9986 9984 9982 9981 9980 9979 9978 9977 9976 9975 9974 9972 9971 9970 9969 9968 9967 9967 9967 9966 9966 9966 9965 9964 9964 9963 9962 9962 9961 9961 9960 9960 9960 9959 9959 9959 9959 9959 9959 9959 9960 9961 9961 9962 9962 9963 9964 9966 9967 9968 9969 9971
10057 10053 10050 10047 10044 10041 10037 10034 10031 10029 10026 10023 10021 10019 10017 10015 10012 10011 10008 10006 10004 10002 10001 9999 9997 9996 9994 9992 9991 9989 9987 9986 9984 9982 9981 9979 9977 9976 9976 9974 9973 9972 9971 9970 9969 9968 9967 9966 9965 9964 9964 9963 9962 9962 9962 9961 9961 9960 9959 9959 9957 9957 9956 9956 9956 9956 9955 9955 9955 9954 9954 9954 9954 9955 9955 9956 9956 9957 9957 9958 9959 9961 9962 9963 9964 9966
10052 10048 10045 10041 10038 10035 10032 10029 10026 10024 10021 10018 10016 10014 10011 10009 10007 10005 10003 10001 9999 9997 9996 9994 9992 9991 9989 9987 9986 9984 9982 9981 9980 9979 9977 9976 9973 9972 9971 9970 9969 9968 9967 9966 9965 9964 9962 9962 9961 9960 9959 9959 9959 9958 9957 9957 9956 9956 9955 9954 9954 9953 9952 9952 9952 9951 9951 9951 9951 9951 9951 9951 9951 9951 9951 9951 9951 9952 9952 9954 9954 9956 9957 9958 9959 9961
10047 10043 10039 10036 10033 10030 10027 10024 10021 10019 10016 10013 10011 10008 10006 10004 10002 10000 9998 9996 9994 9993 9991 9989 9987 9986 9985 9983 9981 9979 9978 9977 9976 9974 9973 9972 9970 9968 9967 9966 9965 9964 9962 9962 9961 9960 9959 9958 9957 9957 9956 9956 9955 9954 9954 9953 9952 9951 9951 9950 9949 9949 9949 9948 9948 9947 9947 9947 9947 9947 9946 9946 9946 9946 9946 9947 9947 9947 9948 9949 9950 9951 9952 9954 9954 9956
10041 10037 10034 10031 10028 10025 10022 10019 10016 10014 10011 10009 10006 10004 10001 9999 9997 9995 9993 9991 9990 9988 9987 9985 9983 9982 9980 9979 9977 9976 9974 9972 9971 9970 9969 9967 9966 9964 9963 9962 9961 9960 9959 9958 9957 9956 9955 9954 9954 9953 9952 9952 9951 9951 9950 9949 9948 9947 9947 9946 9946 9945 9945 9944 9944 9944 9944 9944 9943 9943 9942 9942 9942 9942 9942 9942 9943 9944 9944 9945 9946 9947 9948 9949 9951 9952
10036 10033 10030 10026 10023 10021 10017 10014 10012 10009 10007 10004 10002 9999 9997 9995 9993 9991 9989 9987 9986 9984 9982 9981 9979 9977 9976 9975 9974 9972 9971 9969 9967 9966 9965 9964 9962 9961 9959 9959 9957 9956 9956 9954 9954 9952 9952 9951 9950 9949 9949 9949 9947 9947 9946 9946 9944 9944 9943 9942 9942 9942 9941 9941 9941 9941 9941 9940 9940 9939 9939 9939 9939 9939 9939 9939 9939 9940 9941 9941 9942 9943 9944 9946 9947 9948
10032 10029 10025 10022 10019 10016 10013 10011 10007 10005 10002 10000 9998 9996 9993 9991 9989 9987 9985 9984 9982 9981 9979 9977 9976 9974 9972 9971 9970 9968 9967 9966 9964 9963 9962 9960 9959 9957 9956 9955 9954 9953 9952 9951 9951 9949 9949 9948 9947 9947 9946 9945 9944 9944 9943 9942 9941 9941 9940 9939 9939 9939 9938 9938 9937 9937 9937 9937 9936 9936 9936 9936 9936 9935 9936 9936 9936 9936 9937 9938 9939 9940 9941 9942 9943 9944
10027 10024 10021 10018 10015 10012 10009 10006 10004 10001 9999 9997 9994 9992 9990 9987 9986 9984 9982 9981 9979 9977 9976 9974 9972 9971 9969 9968 9966 9965 9963 9962 9961 9960 9959 9957 9956 9954 9953 9952 9951 9950 9949 9949 9948 9947 9946 9945 9944 9944 9943 9942 9941 9941 9940 9939 9938 9937 9937 9936 9936 9936 9936 9935 9935 9934 9934 9934 9934 9933 9932 9932 9932 9932 9932 9932 9932 9933 9934 9934 9935 9936 9937 9938 9940 9941
10023 10020 10017 10014 10011 10008 10006 10003 10001 9998 9996 9993 9991 9989 9987 9985 9983 9981 9979 9977 9976 9974 9973 9971 9970 9968 9967 9966 9964 9962 9960 9959 9958 9957 9956 9955 9953 9952 9951 9949 9948 9947 9946 9946 9946 9944 9943 9942 9942 9941 9940 9939 9939 9938 9937 9936 9936 9935 9934 9934 9934 9933 9933 9932 9932 9932 9931 9931 9931 9930 9930 9929 9929 9929 9929 9929 9929 9930 9931 9931 9932 9933 9934 9935 9937 9938
10019 10016 10013 10011 10007 10005 10002 10000 9997 9995 9992 9991 9989 9986 9984 9982 9981 9979 9977 9975 9973 9972 9970 9969 9967 9966 9964 9963 9961 9960 9958 9956 9955 9954 9953 9952 9951 9949 9948 9947 9946 9945 9944 9943 9942 9942 9941 9940 9939 9939 9937 9937 9936 9936 9934 9934 9933 9932 9932 9932 9931 9931 9931 9930 9929 9929 9929 9928 9928 9927 9927 9927 9927 9926 9926 9927 9927 9927 9928 9929 9929 9931 9931 9932 9934 9935
10015 10012 10009 10007 10004 10002 9999 9997 9994 9992 9990 9988 9986 9984 9982 9980 9978 9976 9974 9972 9971 9969 9967 9966 9964 9963 9962 9960 9959 9957 9956 9954 9953 9952 9951 9949 9948 9947 9946 9944 9944 9942 9941 9941 9940 9939 9939 9938 9937 9936 9936 9935 9934 9933 9932 9932 9931 9931 9930 9930 9929 9929 9928 9927 9927 9927 9926 9926 9926 9925 9924 9924 9924 9924 9924 9924 9924 9925 9926 9926 9927 9928 9929 9930 9931 9932
10011 10009 10006 10004 10001 9999 9996 9994 9992 9989 9987 9986 9984 9981 9979 9977 9976 9974 9972 9970 9968 9967 9965 9964 9962 9961 9959 9958 9956 9955 9954 9952 9951 9949 9948 9947 9946 9944 9944 9942 9941 9941 9939 9939 9938 9937 9936 9936 9935 9934 9934 9932 9932 9931 9931 9930 9929 9929 9929 9928 9927 9927 9926 9926 9925 9924 9924 9924 9923 9922 9922 9922 9922 9922 9922 9922 9923 9923 9924 9924 9925 9926 9927 9928 9929 9931
10008 10005 10002 10001 9998 9996 9993 9991 9989 9987 9985 9983 9981 9979 9977 9975 9973 9971 9970 9968 9966 9964 9963 9961 9960 9959 9957 9956 9954 9952 9951 9950 9949 9947 9946 9946 9944 9942 9941 9940 9939 9938 9937 9937 9936 9936 9934 9934 9933 9932 9932 9931 9930 9929 9929 9928 9928 9927 9927 9926 9925 9924 9924 9924 9923 9923 9922 9922 9921 9921 9921 9921 9920 9920 9921 9921 9921 9922 9922 9922 9923 9924 9925 9926 9927 9929
10005 10002 9999 9997 9995 9993 9991 9989 9986 9984 9982 9981 9979 9977 9975 9973 9971 9969 9967 9966 9964 9962 9961 9959 9958 9957 9956 9954 9952 9951 9949 9947 9946 9945 9944 9943 9942 9941 9939 9938 9937 9937 9936 9935 9934 9934 9933 9932 9931 9931 9930 9929 9928 9927 9927 9927 9926 9926 9925 9924 9923 9923 9922 9922 9922 9921 9921 9921 9920 9919 9919 9919 9919 9919 9919 9919 9920 9921 9921 9921 9922 9922 9923 9924 9925 9927
10002 9999 9997 9994 9992 9990 9988 9986 9984 9982 9981 9979 9977 9975 9973 9971 9969 9967 9966 9964 9962 9961 9959 9957 9956 9955 9954 9952 9951 9949 9947 9946 9945 9943 9942 9941 9941 9939 9938 9937 9936 9935 9934 9934 9932 9932 9931 9931 9930 9929 9928 9927 9927 9926 9926 9925 9924 9924 9923 9922 9922 9922 9921 9921 9921 9920 9920 9919 9919 9918 9918 9917 9917 9917 9917 9917 9918 9919 9919 9920 9920 9921 9922 9922 9924 9925
9999 9996 9994 9992 9990 9987 9986 9984 9982 9980 9978 9977 9975 9973 9971 9969 9967 9966 9964 9962 9961 9959 9957 9956 9954 9953 9952 9950 9949 9947 9946 9945 9943 9942 9941 9939 9939 9937 9937 9936 9934 9933 9932 9932 9931 9931 9930 9929 9928 9927 9927 9926 9926 9925 9924 9924 9923 9922 9922 9921 9921 9921 9921 9920 9919 9919 9919 9918 9917 9917 9917 9917 9917 9916 9916 9916 9917 9917 9918 9918 9919 9919 9921 9921 9922 9924
9996 9994 9991 9989 9987 9986 9984 9982 9980 9978 9976 9975 9973 9971 9969 9967 9966 9964 9962 9961 9959 9957 9956 9954 9953 9951 9950 9949 9947 9946 9944 9943 9942 9941 9939 9938 9937 9936 9935 9934 9933 9932 9931 9931 9930 9929 9929 9927 9927 9926 9926 9925 9924 9924 9923 9922 9922 9921 9921 9921 9920 9920 9919 9919 9919 9918 9917 9917 9917 9916 9916 9916 9916 9916 9916 9916 9916 9916 9917 9917 9917 9919 9919 9921 9921 9922
9994 9991 9989 9987 9985 9983 9981 9979 9978 9976 9974 9973 9971 9969 9968 9966 9964 9962 9961 9959 9957 9956 9954 9953 9952 9950 9949 9947 9946 9944 9943 9942 9941 9939 9938 9937 9936 9934 9934 9932 9932 9931 9930 9929 9929 9927 9927 9926 9926 9925 9924 9924 9923 9922 9922 9921 9921 9920 9920 9919 9919 9919 9918 9918 9917 9917 9917 9916 9916 9916 9916 9915 9915 9915 9915 9915 9915 9916 9916 9916 9917 9917 9919 9920 9921 9922
9991 9989 9987 9985 9982 9981 9979 9977 9976 9974 9973 9971 9970 9968 9966 9965 9963 9961 9960 9958 9956 9955 9953 9952 9951 9949 9947 9946 9944 9943 9942 9940 9939 9938 9937 9936 9934 9933 9932 9931 9931 9930 9929 9928 9927 9926 9926 9925 9924 9924 9923 9922 9922 9921 9921 9920 9920 9919 9919 9919 9918 9918 9917 9917 9917 9917 9916 9916 9916 9916 9916 9915 9914 9914 9914 9914 9915 9915 9916 9916 9917 9917 9918 9919 9920 9921
9989 9987 9985 9982 9981 9979 9977 9976 9974 9972 9971 9970 9968 9967 9965 9964 9962 9960 9959 9957 9955 9954 9952 9951 9949 9948 9946 9945 9944 9942 9941 9939 9938 9937 9936 9934 9933 9932 9931 9931 9929 9929 9928 9927 9926 9925 9924 9924 9924 9923 9922 9922 9921 9921 9920 9919 9919 9919 9918 9918 9918 9917 9917 9917 9917 9916 9916 9916 9916 9916 9915 9915 9914 9914 9914 9914 9914 9915 9916 9916 9917 9918 9919 9919 9920 9921
9987 9985 9982 9981 9979 9977 9976 9974 9972 9971 9970 9968 9967 9966 9964 9962 9961 9959 9957 9956 9954 9952 9951 9949 9948 9947 9946 9944 9942 9941 9940 9938 9937 9936 9934 9933 9932 9931 9930 9929 9928 9927 9927 9926 9925 9924 9924 9923 9922 9922 9921 9921 9921 9920 9919 9919 9918 9918 9917 9917 9917 9917 9917 9917 9916 9916 9916 9916 9916 9915 9915 9915 9914 9914 9914 9914 9914 9915 9916 9916 9917 9918 9919 9919 9920 9921
9985 9983 9981 9979 9977 9976 9974 9972 9971 9969 9968 9967 9966 9964 9962 9961 9959 9957 9956 9954 9952 9951 9950 9948 9947 9946 9944 9943 9942 9941 9939 9937 9936 9935 9934 9932 9931 9931 9929 9928 9927 9926 9926 9925 9924 9924 9923 9922 9922 9921 9921 9921 9920 9919 9919 9918 9918 9917 9917 9917 9917 9917 9917 9917 9917 9916 9916 9916 9915 9915 9915 9915 9914 9914 9914 9915 9915 9915 9916 9917 9918 9919 9919 9919 9920 9921
9983 9981 9979 9977 9975 9974 9972 9971 9969 9967 9966 9965 9964 9962 9961 9960 9958 9956 9955 9953 9952 9950 9949 9947 9946 9944 9943 9942 9941 9939 9938 9937 9936 9934 9933 9932 9931 9929 9929 9927 9926 9926 9925 9924 9924 9923 9922 9922 9921 9921 9920 9920 9919 9919 9919 9918 9918 9917 9917 9917 9917 9917 9917 9917 9917 9917 9916 9916 9916 9915 9915 9915 9915 9915 9915 9915 9915 9916 9916 9917 9918 9919 9919 9919 9921 9921
9981 9979 9977 9975 9974 9972 9970 9969 9967 9966 9965 9964 9962 9961 9960 9959 9957 9955 9954 9952 9951 9949 9947 9946 9945 9944 9942 9941 9939 9938 9937 9936 9934 9933 9932 9931 9930 9929 9927 9927 9926 9925 9924 9923 9922 9922 9921 9921 9921 9920 9920 9919 9919 9919 9918 9918 9917 9917 9917 9917 9917 9917 9917 9917 9917 9917 9917 9916 9916 9916 9915 9915 9915 9915 9915 9916 9916 9916 9916 9917 9919 9920 9920 9920 9921 9922
9979 9977 9976 9974 9972 9970 9969 9967 9966 9964 9963 9962 9961 9959 9958 9957 9956 9954 9952 9951 9949 9948 9947 9946 9944 9942 9941 9940 9939 9937 9936 9935 9934 9932 9931 9930 9929 9928 9927 9926 9925 9924 9924 9922 9922 9921 9921 9921 9920 9920 9919 9919 9919 9919 9918 9918 9917 9917 9917 9917 9917 9917 9917 9917 9917 9917 9917 9917 9916 9916 9916 9916 9916 9916 9916 9916 9916 9917 9917 9918 9919 9921 9921 9921 9922 9923
9977 9976 9974 9972 9970 9969 9967 9966 9964 9963 9961 9960 9959 9958 9957 9956 9954 9953 9951 9949 9948 9947 9946 9944 9943 9942 9941 9939 9937 9937 9936 9934 9933 9932 9931 9929 9929 9927 9926 9926 9924 9924 9923 9922 9922 9921 9921 9920 9920 9919 9919 9919 9919 9919 9918 9917 9917 9917 9917 9917 9917 9917 9917 9917 9917 9917 9917 9917 9917 9916 9916 9916 9916 9917 9917 9917 9917 9917 9918 9919 9920 9921 9921 9922 9923 9924
9976 9974 9972 9971 9969 9967 9966 9964 9962 9961 9960 9959 9957 9956 9955 9954 9953 9952 9950 9949 9947 9946 9944 9944 9942 9941 9939 9938 9937 9936 9934 9933 9932 9931 9930 9929 9928 9927 9926 9925 9924 9923 9922 9922 9921 9921 9921 9920 9919 9919 9919 9919 9919 9918 9918 9917 9917 9917 9917 9917 9917 9917 9917 9917 9917 9917 9917 9917 9917 9917 9917 9917 9917 9917 9917 9918 9918 9919 9919 9920 9921 9921 9922 9923 9924 9925
9974 9972 9971 9969 9967 9966 9964 9962 9961 9960 9959 9957 9956 9955 9954 9953 9952 9951 9949 9947 9946 9945 9944 9942 9941 9940 9939 9937 9936 9935 9934 9932 9931 9931 9929 9929 9927 9927 9926 9924 9924 9923 9922 9922 9921 9921 9921 9920 9919 9919 9919 9919 9919 9919 9918 9918 9917 9917 9917 9917 9917 9917 9917 9917 9917 9917 9917 9917 9917 9917 9917 9917 9917 9917 9918 9919 9919 9920 9921 9921 9922 9922 9923 9924 9926 9927